(°C)
(°C)
S
S
SSO
SO
SO
SO
SO
(km/h)
7-17
7-19
7-19
8-19
9-20
10-21
12-26
(mm)
0
0
0
0
0
0
0.4
(%)
0
0
0
0
11
36
42

Élévation du soleil

/ -33.4°
sun-icon
UV 1
08:10
18:17
Gibbeuse décroissante (201°)
18:55
09:50

METAR pour 55.03°N 82.6°E (UNNT)

Heure Conditions Température/
Point de rosée
Vent Visibilité Météo Nuages Pression Changement Brut
VFR 6°C / 0°C 150º 8kt >10km - Clouds and Visibility OK 1008 No Significant change. Runway 07: Clear and dry, 51-100% contamination with <1mm, friction coefficient 0.70. Runway 16: Clear and dry, 51-100% contamination with <1mm, friction coefficient 0.70. UNNT 212100Z 15004MPS CAVOK 06/M00 Q1008 R07/090070 R16/090070 NOSIG RMK QFE746/0995
VFR 6°C / 0°C 140º 8kt >10km - Clouds and Visibility OK 1008 No Significant change. Runway 07: Clear and dry, 51-100% contamination with <1mm, friction coefficient 0.70. Runway 16: Clear and dry, 51-100% contamination with <1mm, friction coefficient 0.70. UNNT 212030Z 14004MPS CAVOK 06/M00 Q1008 R07/090070 R16/090070 NOSIG RMK QFE746/0995
VFR 6°C / 0°C 140º 8kt >10km - Clouds and Visibility OK 1008 No Significant change. Runway 07: Clear and dry, 51-100% contamination with <1mm, friction coefficient 0.70. Runway 16: Clear and dry, 51-100% contamination with <1mm, friction coefficient 0.70. UNNT 212000Z 14004MPS CAVOK 06/M00 Q1008 R07/090070 R16/090070 NOSIG RMK QFE746/0995
VFR 7°C / 0°C 150º 8kt >10km - Clouds and Visibility OK 1008 No Significant change. Runway 07: Clear and dry, 51-100% contamination with <1mm, friction coefficient 0.70. Runway 16: Clear and dry, 51-100% contamination with <1mm, friction coefficient 0.70. UNNT 211930Z 15004MPS CAVOK 07/00 Q1008 R07/090070 R16/090070 NOSIG RMK QFE746/0995
VFR 6°C / 0°C 130º 8kt >10km - Clouds and Visibility OK 1008 No Significant change. Runway 07: Clear and dry, 51-100% contamination with <1mm, friction coefficient 0.70. Runway 16: Clear and dry, 51-100% contamination with <1mm, friction coefficient 0.70. UNNT 211900Z 13004MPS CAVOK 06/00 Q1008 R07/090070 R16/090070 NOSIG RMK QFE746/0995
VFR 6°C / 0°C 150º 8kt >10km - Clouds and Visibility OK 1009 No Significant change. Runway 07: Clear and dry, 51-100% contamination with <1mm, friction coefficient 0.70. Runway 16: Clear and dry, 51-100% contamination with <1mm, friction coefficient 0.70. UNNT 211830Z 15004MPS CAVOK 06/00 Q1009 R07/090070 R16/090070 NOSIG RMK QFE747/0996
VFR 6°C / 0°C 160º 8kt >10km - Clouds and Visibility OK 1009 No Significant change. Runway 25: Clear and dry, 51-100% contamination with <1mm, friction coefficient 0.70. Runway 16: Clear and dry, 51-100% contamination with <1mm, friction coefficient 0.70. UNNT 211800Z 16004MPS CAVOK 06/00 Q1009 R25/090070 R16/090070 NOSIG RMK QFE747/0996
VFR 6°C / 0°C 150º 8kt >10km - Clouds and Visibility OK 1009 No Significant change. Runway 25: Clear and dry, 51-100% contamination with <1mm, friction coefficient 0.70. Runway 16: Clear and dry, 51-100% contamination with <1mm, friction coefficient 0.70. UNNT 211730Z 15004MPS CAVOK 06/00 Q1009 R25/090070 R16/090070 NOSIG RMK QFE747/0996
VFR 7°C / 1°C 140º 6kt >10km - Clouds and Visibility OK 1009 No Significant change. Runway 16: Clear and dry, 51-100% contamination with <1mm, friction coefficient 0.70. Runway 07: Clear and dry, 51-100% contamination with <1mm, friction coefficient 0.70. UNNT 211700Z 14003MPS CAVOK 07/01 Q1009 R16/090070 R07/090070 NOSIG RMK QFE747/0996
VFR 8°C / 1°C 150º 4kt >10km - Clouds and Visibility OK 1009 No Significant change. Runway 16: Clear and dry, 51-100% contamination with <1mm, friction coefficient 0.70. Runway 07: Clear and dry, 51-100% contamination with <1mm, friction coefficient 0.70. UNNT 211630Z 15002MPS CAVOK 08/01 Q1009 R16/090070 R07/090070 NOSIG RMK QFE747/0996
VFR 9°C / 1°C 150º 6kt >10km - Clouds and Visibility OK 1009 No Significant change. Runway 16: Clear and dry, 51-100% contamination with <1mm, friction coefficient 0.70. Runway 07: Clear and dry, 51-100% contamination with <1mm, friction coefficient 0.70. UNNT 211600Z 15003MPS CAVOK 09/01 Q1009 R16/090070 R07/090070 NOSIG RMK QFE747/0996
VFR 9°C / 1°C 150º 6kt >10km - Clouds and Visibility OK 1009 No Significant change. Runway 16: Clear and dry, 51-100% contamination with <1mm, friction coefficient 0.70. Runway 07: Clear and dry, 51-100% contamination with <1mm, friction coefficient 0.70. UNNT 211530Z 15003MPS CAVOK 09/01 Q1009 R16/090070 R07/090070 NOSIG RMK QFE747/0996
VFR 8°C / 1°C 150º 4kt >10km - Clouds and Visibility OK 1010 No Significant change. Runway 16: Clear and dry, 51-100% contamination with <1mm, friction coefficient 0.70. Runway 07: Clear and dry, 51-100% contamination with <1mm, friction coefficient 0.70. UNNT 211500Z 15002MPS CAVOK 08/01 Q1010 R16/090070 R07/090070 NOSIG RMK QFE747/0997
VFR 8°C / 1°C 150º 4kt >10km - Clouds and Visibility OK 1010 No Significant change. Runway 16: Clear and dry, 51-100% contamination with <1mm, friction coefficient 0.70. Runway 07: Clear and dry, 51-100% contamination with <1mm, friction coefficient 0.70. UNNT 211430Z 15002MPS CAVOK 08/01 Q1010 R16/090070 R07/090070 NOSIG RMK QFE747/0997
VFR 7°C / 0°C 150º 6kt >10km - Clouds and Visibility OK 1010 No Significant change. Runway 16: Clear and dry, 51-100% contamination with <1mm, friction coefficient 0.70. Runway 07: Clear and dry, 51-100% contamination with <1mm, friction coefficient 0.70. UNNT 211400Z 15003MPS CAVOK 07/00 Q1010 R16/090070 R07/090070 NOSIG RMK QFE747/0997
VFR 7°C / 0°C 150º 4kt >10km - Clouds and Visibility OK 1010 No Significant change. Runway 16: Clear and dry, 51-100% contamination with <1mm, friction coefficient 0.70. Runway 07: Clear and dry, 51-100% contamination with <1mm, friction coefficient 0.70. UNNT 211330Z 15002MPS CAVOK 07/M00 Q1010 R16/090070 R07/090070 NOSIG RMK QFE747/0997
VFR 8°C / 0°C 150º 4kt >10km - Clouds and Visibility OK 1010 No Significant change. Runway 16: Clear and dry, 51-100% contamination with <1mm, friction coefficient 0.70. Runway 07: Clear and dry, 51-100% contamination with <1mm, friction coefficient 0.70. UNNT 211300Z 15002MPS CAVOK 08/M00 Q1010 R16/090070 R07/090070 NOSIG RMK QFE747/0996
VFR 8°C / 0°C 160º 8kt >10km - Clouds and Visibility OK 1010 No Significant change. Runway 16: Clear and dry, 51-100% contamination with <1mm, friction coefficient 0.70. Runway 07: Clear and dry, 51-100% contamination with <1mm, friction coefficient 0.70. UNNT 211230Z 16004MPS CAVOK 08/00 Q1010 R16/090070 R07/090070 NOSIG RMK QFE747/0997
VFR 9°C / 0°C 160º 8kt >10km - Clouds and Visibility OK 1010 No Significant change. Runway 16: Clear and dry, 51-100% contamination with <1mm, friction coefficient 0.70. Runway 07: Clear and dry, 51-100% contamination with <1mm, friction coefficient 0.70. UNNT 211200Z 16004MPS CAVOK 09/00 Q1010 R16/090070 R07/090070 NOSIG RMK QFE747/0997
VFR 8°C / 0°C 170º 6kt >10km - Clouds and Visibility OK 1010 No Significant change. Runway 16: Clear and dry, 51-100% contamination with <1mm, friction coefficient 0.70. Runway 07: Clear and dry, 51-100% contamination with <1mm, friction coefficient 0.70. UNNT 211130Z 17003MPS CAVOK 08/00 Q1010 R16/090070 R07/090070 NOSIG RMK QFE747/0997
VFR 10°C / 0°C 170º 6kt >10km - Clouds and Visibility OK 1010 No Significant change. Runway 16: Clear and dry, 51-100% contamination with <1mm, friction coefficient 0.70. Runway 07: Clear and dry, 51-100% contamination with <1mm, friction coefficient 0.70. UNNT 211100Z 17003MPS CAVOK 10/00 Q1010 R16/090070 R07/090070 NOSIG RMK QFE747/0997
VFR 13°C / 1°C 170º 8kt >10km - Clouds and Visibility OK 1009 No Significant change. Runway 16: Clear and dry, 51-100% contamination with <1mm, friction coefficient 0.70. Runway 07: Clear and dry, 51-100% contamination with <1mm, friction coefficient 0.70. UNNT 211030Z 17004MPS CAVOK 13/01 Q1009 R16/090070 R07/090070 NOSIG RMK QFE747/0996
VFR 14°C / 1°C 170º 10kt >10km - Clouds and Visibility OK 1010 No Significant change. Runway 16: Clear and dry, 51-100% contamination with <1mm, friction coefficient 0.70. Runway 07: Clear and dry, 51-100% contamination with <1mm, friction coefficient 0.70. UNNT 211000Z 17005MPS CAVOK 14/01 Q1010 R16/090070 R07/090070 NOSIG RMK QFE747/0996
VFR 15°C / 0°C 170º 10kt >10km - Clouds and Visibility OK 1010 No Significant change. Runway 16: Clear and dry, 51-100% contamination with <1mm, friction coefficient 0.70. Runway 07: Clear and dry, 51-100% contamination with <1mm, friction coefficient 0.70. UNNT 210930Z 17005MPS CAVOK 15/00 Q1010 R16/090070 R07/090070 NOSIG RMK QFE747/0997

VFR

6°C / 0°C

[Plus]
Vent 150º 8kt
Visibilité >10km
Météo -
Nuages Clouds and Visibility OK
Pression 1008
Changement No Significant change. Runway 07: Clear and dry, 51-100% contamination with <1mm, friction coefficient 0.70. Runway 16: Clear and dry, 51-100% contamination with <1mm, friction coefficient 0.70.
Brut UNNT 212100Z 15004MPS CAVOK 06/M00 Q1008 R07/090070 R16/090070 NOSIG RMK QFE746/0995

VFR

6°C / 0°C

[Plus]
Vent 140º 8kt
Visibilité >10km
Météo -
Nuages Clouds and Visibility OK
Pression 1008
Changement No Significant change. Runway 07: Clear and dry, 51-100% contamination with <1mm, friction coefficient 0.70. Runway 16: Clear and dry, 51-100% contamination with <1mm, friction coefficient 0.70.
Brut UNNT 212030Z 14004MPS CAVOK 06/M00 Q1008 R07/090070 R16/090070 NOSIG RMK QFE746/0995

VFR

6°C / 0°C

[Plus]
Vent 140º 8kt
Visibilité >10km
Météo -
Nuages Clouds and Visibility OK
Pression 1008
Changement No Significant change. Runway 07: Clear and dry, 51-100% contamination with <1mm, friction coefficient 0.70. Runway 16: Clear and dry, 51-100% contamination with <1mm, friction coefficient 0.70.
Brut UNNT 212000Z 14004MPS CAVOK 06/M00 Q1008 R07/090070 R16/090070 NOSIG RMK QFE746/0995

VFR

7°C / 0°C

[Plus]
Vent 150º 8kt
Visibilité >10km
Météo -
Nuages Clouds and Visibility OK
Pression 1008
Changement No Significant change. Runway 07: Clear and dry, 51-100% contamination with <1mm, friction coefficient 0.70. Runway 16: Clear and dry, 51-100% contamination with <1mm, friction coefficient 0.70.
Brut UNNT 211930Z 15004MPS CAVOK 07/00 Q1008 R07/090070 R16/090070 NOSIG RMK QFE746/0995

VFR

6°C / 0°C

[Plus]
Vent 130º 8kt
Visibilité >10km
Météo -
Nuages Clouds and Visibility OK
Pression 1008
Changement No Significant change. Runway 07: Clear and dry, 51-100% contamination with <1mm, friction coefficient 0.70. Runway 16: Clear and dry, 51-100% contamination with <1mm, friction coefficient 0.70.
Brut UNNT 211900Z 13004MPS CAVOK 06/00 Q1008 R07/090070 R16/090070 NOSIG RMK QFE746/0995

VFR

6°C / 0°C

[Plus]
Vent 150º 8kt
Visibilité >10km
Météo -
Nuages Clouds and Visibility OK
Pression 1009
Changement No Significant change. Runway 07: Clear and dry, 51-100% contamination with <1mm, friction coefficient 0.70. Runway 16: Clear and dry, 51-100% contamination with <1mm, friction coefficient 0.70.
Brut UNNT 211830Z 15004MPS CAVOK 06/00 Q1009 R07/090070 R16/090070 NOSIG RMK QFE747/0996

VFR

6°C / 0°C

[Plus]
Vent 160º 8kt
Visibilité >10km
Météo -
Nuages Clouds and Visibility OK
Pression 1009
Changement No Significant change. Runway 25: Clear and dry, 51-100% contamination with <1mm, friction coefficient 0.70. Runway 16: Clear and dry, 51-100% contamination with <1mm, friction coefficient 0.70.
Brut UNNT 211800Z 16004MPS CAVOK 06/00 Q1009 R25/090070 R16/090070 NOSIG RMK QFE747/0996

VFR

6°C / 0°C

[Plus]
Vent 150º 8kt
Visibilité >10km
Météo -
Nuages Clouds and Visibility OK
Pression 1009
Changement No Significant change. Runway 25: Clear and dry, 51-100% contamination with <1mm, friction coefficient 0.70. Runway 16: Clear and dry, 51-100% contamination with <1mm, friction coefficient 0.70.
Brut UNNT 211730Z 15004MPS CAVOK 06/00 Q1009 R25/090070 R16/090070 NOSIG RMK QFE747/0996

VFR

7°C / 1°C

[Plus]
Vent 140º 6kt
Visibilité >10km
Météo -
Nuages Clouds and Visibility OK
Pression 1009
Changement No Significant change. Runway 16: Clear and dry, 51-100% contamination with <1mm, friction coefficient 0.70. Runway 07: Clear and dry, 51-100% contamination with <1mm, friction coefficient 0.70.
Brut UNNT 211700Z 14003MPS CAVOK 07/01 Q1009 R16/090070 R07/090070 NOSIG RMK QFE747/0996

VFR

8°C / 1°C

[Plus]
Vent 150º 4kt
Visibilité >10km
Météo -
Nuages Clouds and Visibility OK
Pression 1009
Changement No Significant change. Runway 16: Clear and dry, 51-100% contamination with <1mm, friction coefficient 0.70. Runway 07: Clear and dry, 51-100% contamination with <1mm, friction coefficient 0.70.
Brut UNNT 211630Z 15002MPS CAVOK 08/01 Q1009 R16/090070 R07/090070 NOSIG RMK QFE747/0996

VFR

9°C / 1°C

[Plus]
Vent 150º 6kt
Visibilité >10km
Météo -
Nuages Clouds and Visibility OK
Pression 1009
Changement No Significant change. Runway 16: Clear and dry, 51-100% contamination with <1mm, friction coefficient 0.70. Runway 07: Clear and dry, 51-100% contamination with <1mm, friction coefficient 0.70.
Brut UNNT 211600Z 15003MPS CAVOK 09/01 Q1009 R16/090070 R07/090070 NOSIG RMK QFE747/0996

VFR

9°C / 1°C

[Plus]
Vent 150º 6kt
Visibilité >10km
Météo -
Nuages Clouds and Visibility OK
Pression 1009
Changement No Significant change. Runway 16: Clear and dry, 51-100% contamination with <1mm, friction coefficient 0.70. Runway 07: Clear and dry, 51-100% contamination with <1mm, friction coefficient 0.70.
Brut UNNT 211530Z 15003MPS CAVOK 09/01 Q1009 R16/090070 R07/090070 NOSIG RMK QFE747/0996

VFR

8°C / 1°C

[Plus]
Vent 150º 4kt
Visibilité >10km
Météo -
Nuages Clouds and Visibility OK
Pression 1010
Changement No Significant change. Runway 16: Clear and dry, 51-100% contamination with <1mm, friction coefficient 0.70. Runway 07: Clear and dry, 51-100% contamination with <1mm, friction coefficient 0.70.
Brut UNNT 211500Z 15002MPS CAVOK 08/01 Q1010 R16/090070 R07/090070 NOSIG RMK QFE747/0997

VFR

8°C / 1°C

[Plus]
Vent 150º 4kt
Visibilité >10km
Météo -
Nuages Clouds and Visibility OK
Pression 1010
Changement No Significant change. Runway 16: Clear and dry, 51-100% contamination with <1mm, friction coefficient 0.70. Runway 07: Clear and dry, 51-100% contamination with <1mm, friction coefficient 0.70.
Brut UNNT 211430Z 15002MPS CAVOK 08/01 Q1010 R16/090070 R07/090070 NOSIG RMK QFE747/0997

VFR

7°C / 0°C

[Plus]
Vent 150º 6kt
Visibilité >10km
Météo -
Nuages Clouds and Visibility OK
Pression 1010
Changement No Significant change. Runway 16: Clear and dry, 51-100% contamination with <1mm, friction coefficient 0.70. Runway 07: Clear and dry, 51-100% contamination with <1mm, friction coefficient 0.70.
Brut UNNT 211400Z 15003MPS CAVOK 07/00 Q1010 R16/090070 R07/090070 NOSIG RMK QFE747/0997

VFR

7°C / 0°C

[Plus]
Vent 150º 4kt
Visibilité >10km
Météo -
Nuages Clouds and Visibility OK
Pression 1010
Changement No Significant change. Runway 16: Clear and dry, 51-100% contamination with <1mm, friction coefficient 0.70. Runway 07: Clear and dry, 51-100% contamination with <1mm, friction coefficient 0.70.
Brut UNNT 211330Z 15002MPS CAVOK 07/M00 Q1010 R16/090070 R07/090070 NOSIG RMK QFE747/0997

VFR

8°C / 0°C

[Plus]
Vent 150º 4kt
Visibilité >10km
Météo -
Nuages Clouds and Visibility OK
Pression 1010
Changement No Significant change. Runway 16: Clear and dry, 51-100% contamination with <1mm, friction coefficient 0.70. Runway 07: Clear and dry, 51-100% contamination with <1mm, friction coefficient 0.70.
Brut UNNT 211300Z 15002MPS CAVOK 08/M00 Q1010 R16/090070 R07/090070 NOSIG RMK QFE747/0996

VFR

8°C / 0°C

[Plus]
Vent 160º 8kt
Visibilité >10km
Météo -
Nuages Clouds and Visibility OK
Pression 1010
Changement No Significant change. Runway 16: Clear and dry, 51-100% contamination with <1mm, friction coefficient 0.70. Runway 07: Clear and dry, 51-100% contamination with <1mm, friction coefficient 0.70.
Brut UNNT 211230Z 16004MPS CAVOK 08/00 Q1010 R16/090070 R07/090070 NOSIG RMK QFE747/0997

VFR

9°C / 0°C

[Plus]
Vent 160º 8kt
Visibilité >10km
Météo -
Nuages Clouds and Visibility OK
Pression 1010
Changement No Significant change. Runway 16: Clear and dry, 51-100% contamination with <1mm, friction coefficient 0.70. Runway 07: Clear and dry, 51-100% contamination with <1mm, friction coefficient 0.70.
Brut UNNT 211200Z 16004MPS CAVOK 09/00 Q1010 R16/090070 R07/090070 NOSIG RMK QFE747/0997

VFR

8°C / 0°C

[Plus]
Vent 170º 6kt
Visibilité >10km
Météo -
Nuages Clouds and Visibility OK
Pression 1010
Changement No Significant change. Runway 16: Clear and dry, 51-100% contamination with <1mm, friction coefficient 0.70. Runway 07: Clear and dry, 51-100% contamination with <1mm, friction coefficient 0.70.
Brut UNNT 211130Z 17003MPS CAVOK 08/00 Q1010 R16/090070 R07/090070 NOSIG RMK QFE747/0997

VFR

10°C / 0°C

[Plus]
Vent 170º 6kt
Visibilité >10km
Météo -
Nuages Clouds and Visibility OK
Pression 1010
Changement No Significant change. Runway 16: Clear and dry, 51-100% contamination with <1mm, friction coefficient 0.70. Runway 07: Clear and dry, 51-100% contamination with <1mm, friction coefficient 0.70.
Brut UNNT 211100Z 17003MPS CAVOK 10/00 Q1010 R16/090070 R07/090070 NOSIG RMK QFE747/0997

VFR

13°C / 1°C

[Plus]
Vent 170º 8kt
Visibilité >10km
Météo -
Nuages Clouds and Visibility OK
Pression 1009
Changement No Significant change. Runway 16: Clear and dry, 51-100% contamination with <1mm, friction coefficient 0.70. Runway 07: Clear and dry, 51-100% contamination with <1mm, friction coefficient 0.70.
Brut UNNT 211030Z 17004MPS CAVOK 13/01 Q1009 R16/090070 R07/090070 NOSIG RMK QFE747/0996

VFR

14°C / 1°C

[Plus]
Vent 170º 10kt
Visibilité >10km
Météo -
Nuages Clouds and Visibility OK
Pression 1010
Changement No Significant change. Runway 16: Clear and dry, 51-100% contamination with <1mm, friction coefficient 0.70. Runway 07: Clear and dry, 51-100% contamination with <1mm, friction coefficient 0.70.
Brut UNNT 211000Z 17005MPS CAVOK 14/01 Q1010 R16/090070 R07/090070 NOSIG RMK QFE747/0996

VFR

15°C / 0°C

[Plus]
Vent 170º 10kt
Visibilité >10km
Météo -
Nuages Clouds and Visibility OK
Pression 1010
Changement No Significant change. Runway 16: Clear and dry, 51-100% contamination with <1mm, friction coefficient 0.70. Runway 07: Clear and dry, 51-100% contamination with <1mm, friction coefficient 0.70.
Brut UNNT 210930Z 17005MPS CAVOK 15/00 Q1010 R16/090070 R07/090070 NOSIG RMK QFE747/0997

TAF pour 55.03°N 82.6°E (UNNT)

From till


From till Wind 160º 6kt. Gust 16kt. Visibility 8000m. Broken Clouds 3900ft.
Becoming from till Wind 210º 16kt. Gust 29kt. Visibility 8000m. Broken Clouds 3900ft.
Becoming from till Wind 180º 16kt. Gust 29kt. Visibility 8000m. Broken Clouds 3900ft.

Brut: TAF UNNT 212000Z 2121/2221 16003G08MPS 8000 BKN039CB BECMG 2201/2204 21008G15MPS BECMG 2213/2216 18008G15MPS

Les images satellites et les pluies actuelles pour 55.03°N 82.6°E

Le marqueur est placé sur 55.03°N 82.6°E. [Plus]

L'image satellite en temps réel combine la lumière visible pendant la journée et le rayonnement infrarouge pendant la nuit. La nuit, l'image n'est pas sombre car le rayonnement infrarouge permet de détecter les différences de température. Malheureusement, les nuages bas et le brouillard sont difficiles à distinguer des températures au sol et peuvent donc être presque invisibles pendant la nuit. Les images des satellites Météosat pour l'Europe sont mises à jour en temps réel toutes les 5 minutes. Les images GOES-16/GOES-17 (Amérique du Nord et du Sud) et Himawari (Asie) sont mises à jour toutes les 10 minutes.

Copyright 2021 EUMETSAT / meteoblue. / Copyright 2021 meteoblue

Radar et prévision de précipitation à court terme pour 55.03°N 82.6°E

Bruine
Légère
Modéré
Fort
Très fort
Grêle

Le marqueur est placé sur 55.03°N 82.6°E. Cette animation montre le Radar des précipitations pour les dernières heures, ainsi qu'une 1h prévision. La bruine ou les légères chutes de neiges peuvent ne pas être détectées par le radar. L'intensité des précipitations est visible avec un code couleur allant du bleu clair au violet foncé et orange.